Regional Weather Roundup
Issued by NWS Little Rock, AR

Home | Current Version | Previous Version | Text Only | Print | Product List | Glossary On
Versions: 1 2 3 4 5 6 7 8 9 10 11 12 13 14 15 16 17 18 19 20 21 22 23 24 25 26 27 28 29 30 31 32 33 34 35 36 37 38 39 40 41 42 43 44 45 46 47 48 49 50
000
ASUS44 KLZK 301905
RWRLZK

WEATHER ROUNDUP FOR ARKANSAS
NATIONAL WEATHER SERVICE LITTLE ROCK AR
200 PM CDT SUN AUG 30 2015

NOTE: "FAIR" INDICATES FEW OR NO CLOUDS BELOW 12,000 FEET WITH NO
SIGNIFICANT WEATHER AND/OR OBSTRUCTIONS TO VISIBILITY.

ARZ001-003-010-029-302000-
NORTHWEST ARKANSAS

CITY           SKY/WX    TMP DP  RH WIND       PRES   REMARKS
FAYETTEVILLE   MOSUNNY   84  71  65 SE9       30.03S HX  89
FORT SMITH     PTSUNNY   89  68  49 S3        29.97F HX  93
BENTONVILLE    PTSUNNY   86  66  51 S7        30.04S HX  88
ROGERS         SUNNY     84  71  65 E9        30.03F HX  89
SILOAM SPGS    MOSUNNY   86  66  51 S9        30.01S HX  88
HIGHFILL       MOSUNNY   86  71  60 S12       30.02F HX  91
SPRINGDALE     MOSUNNY   86  70  58 S14       30.05F HX  90
$$

ARZ004-005-016-302000-
NORTH CENTRAL ARKANSAS

CITY           SKY/WX    TMP DP  RH WIND       PRES   REMARKS
BATESVILLE     SUNNY     90  70  51 SE5       30.02F HX  95
FLIPPIN        MOSUNNY   88  66  48 S8        30.02S HX  90
MTN HOME       PTSUNNY   79  70  74 CALM      30.04S
$$

ARZ040-041-302000-
WEST CENTRAL ARKANSAS

CITY           SKY/WX    TMP DP  RH WIND       PRES   REMARKS
MENA           SUNNY     91  64  40 SE8       30.01F HX  93
MOUNT IDA      SUNNY     90  65  43 VRB7      30.00F HX  92
$$

ARZ009-017-025-026-028-302000-
NORTHEAST ARKANSAS

CITY           SKY/WX    TMP DP  RH WIND       PRES   REMARKS
JONESBORO      SUNNY     87  69  54 SE9       30.03F HX  91
NEWPORT        MOSUNNY   88  73  60 VRB6      30.03F HX  95
WALNUT RIDGE   SUNNY     88  70  55 SE9       30.02F HX  92
BLYTHEVILLE    MOSUNNY   85  72  65 S6        30.05F HX  91
$$

ARZ022-023-033-042-044-302000-
CENTRAL ARKANSAS

CITY           SKY/WX    TMP DP  RH WIND       PRES   REMARKS
LITTLE ROCK    MOSUNNY   95  62  33 SE12      30.00F HX  96
N LITTLE ROCK  MOSUNNY   91  67  44 S6        30.00F HX  94
JACKSONVILLE   SUNNY     92  64  39 SE7       30.00F HX  94
SEARCY         SUNNY     93  69  45 VRB7      30.02F HX  98
HOT SPRINGS    MOSUNNY   92  65  40 S9        30.02F HX  94
RUSSELLVILLE   MOSUNNY   89  68  49 E3        30.00F HX  93
$$

ARZ036-302000-
EAST ARKANSAS

CITY           SKY/WX    TMP DP  RH WIND       PRES   REMARKS
WEST MEMPHIS   CLOUDY    85  71  63 S8        30.03S HX  90
$$

ARZ050-053-066-070-073-302000-
SOUTHWEST ARKANSAS

CITY           SKY/WX    TMP DP  RH WIND       PRES   REMARKS
ARKADELPHIA    FAIR      95  67  39 S7        30.01F HX  99
CAMDEN         SUNNY     93  64  38 S5        30.00F HX  95
TEXARKANA      SUNNY     93  67  42 S13G22    30.00F HX  96
EL DORADO      MOSUNNY   92  62  36 SW8       30.01F HX  92
DE QUEEN       SUNNY     93  65  39 VRB6      29.96F HX  95
$$

ARZ056-057-069-302000-
SOUTHEAST ARKANSAS

CITY           SKY/WX    TMP DP  RH WIND       PRES   REMARKS
PINE BLUFF     SUNNY     93  63  36 E6        30.00F HX  94
STUTTGART      SUNNY     91  66  43 SE7       30.01F HX  94
MONTICELLO     SUNNY     94  62  34 CALM      30.00F HX  94

$$




USA.gov is the U.S. government's official web portal to all federal, state and local government web resources and services.